User: anonymous   Login
Location: Newark
(40.9833°N, 0.0333°W)
Time: 09:16:47
(UTC+00:00)
Language:

nSIGHT-1 - Orbit

View from above orbital plane
View from above orbital plane
View from above satellite
View from above satellite

Ground track
Ground track

The orbit data is extracted from the following two-line orbital elements,

1 42726U 98067MF  19142.29178846  .00013342  00000-0  11150-3 0  9997
2 42726  51.6369  88.7600 0006139  71.7556 288.4110 15.70374719113511
Epoch (UTC): 22 May 2019 07:00:10
Eccentricity: 0.0006139
inclination: 51.6369°
perigee height: 353 km
apogee height: 362 km
right ascension of ascending node: 88.7600°
argument of perigee: 71.7556°
revolutions per day: 15.70374719
mean anomaly at epoch: 288.4110°
orbit number at epoch: 11351

The dashed part of the orbit path shows where the satellite is in the earth's shadow,  

DLR